Zurück zum Katalog

ARIANE 2 DEB

LostGTO
NORAD 33566·DEBRIS·🇫🇷 France

Gestartet Jan 27, 1989 von Guiana Space Centre

Loading…

TLE

VeraltetSource: Space-Track

Epoche: Apr 20, 2023, 13:40 UTC

1 33566U 89006BJ  23110.56999119  .00013502  00000-0  20307+0 0  9994
2 33566   7.9367 241.3727 7132099 127.7333 176.0090  2.28162578136587

Verfolge ARIANE 2 DEB in Echtzeit mit AllMySat

Download on the App Store